Regional Weather Roundup
Issued by NWS

Home | Current Version | Previous Version | Text Only | Print | Product List | Glossary On
Versions: 1 2 3 4 5 6 7 8 9 10 11 12 13 14 15 16 17 18 19 20 21 22 23 24 25 26 27 28 29 30 31 32 33 34 35 36 37 38 39 40 41 42 43 44 45 46 47 48 49 50
000
ASUS45 KPSR 181600
RWRAZ

ARIZONA REGIONAL HOURLY WEATHER ROUNDUP
NATIONAL WEATHER SERVICE PHOENIX AZ
900 AM MST SAT APR 18 2015

NOTE: FAIR INDICATES FEW OR NO CLOUDS BELOW 12,000 FEET WITH NO
SIGNIFICANT WEATHER AND/OR OBSTRUCTIONS TO VISIBILITY.

AZZ001>003-036-181700-
NORTHWEST ARIZONA

CITY           SKY/WX    TMP DP  RH WIND       PRES   REMARKS
KINGMAN        SUNNY     67  16  14 W3        30.04R
$$

AZZ004>008-015-016-018-181700-
NORTH CENTRAL ARIZONA

CITY           SKY/WX    TMP DP  RH WIND       PRES   REMARKS
GRAND CANYON   SUNNY     53  24  32 NW13      30.12F
WILLIAMS       SUNNY     54  21  28 N13       30.20S
PRESCOTT       SUNNY     59  22  24 CALM      30.09S
FLAGSTAFF      NOT AVBL
PAYSON         SUNNY     59  23  25 SW7       30.10S
PAGE           SUNNY     56  35  45 VRB3      30.05R
$$

AZZ009>014-017-181700-
NORTHEAST ARIZONA

CITY           SKY/WX    TMP DP  RH WIND       PRES   REMARKS
WINSLOW        NOT AVBL
SAINT JOHNS    CLOUDY    49  29  46 W8        30.08R
WINDOW ROCK    MOSUNNY   49  27  42 N9G18     30.06S
SHOW LOW       MOSUNNY   48  23  37 N8        30.11F
$$

AZZ023-181700-
GREATER PHOENIX AREA

CITY           SKY/WX    TMP DP  RH WIND       PRES   REMARKS
PHOENIX        SUNNY     69  25  19 E6        29.97F
GLENDALE       SUNNY     68  30  24 VRB3      30.00S
DEER VALLEY    SUNNY     68  19  15 SE9       29.98F
SCOTTSDALE     SUNNY     69  23  17 SE3       30.00S
MESA-FALCON    SUNNY     66  19  16 E7        29.99S
MESA-GATEWAY   SUNNY     66  27  22 SE6       30.01S
CHANDLER       SUNNY     68  27  21 VRB6      30.00S
$$

AZZ027-028-181700-
SOUTHWEST MARICOPA COUNTY AND PINAL COUNTY

CITY           SKY/WX    TMP DP  RH WIND       PRES   REMARKS
CASA GRANDE    SUNNY     66  25  20 CALM      29.99S
$$

AZZ503-504-507>509-181700-
SOUTHEAST ARIZONA

CITY           SKY/WX    TMP DP  RH WIND       PRES   REMARKS
TUCSON         SUNNY     66  22  18 S3        30.07S
RYAN FIELD       N/A     64  23  20 CALM      30.06S
NOGALES        SUNNY     62  19  19 SW3       30.10R
SAFFORD        MOSUNNY   61  17  18 VRB3      30.03F
$$

AZZ020-021-025-026-031-181700-
SOUTHWEST ARIZONA

CITY           SKY/WX    TMP DP  RH WIND       PRES   REMARKS
YUMA           SUNNY     75  33  21 CALM      29.95S
$$

CAZ031-033-041-043-047-048-061-181700-
SOUTHERN CALIFORNIA

CITY           SKY/WX    TMP DP  RH WIND       PRES   REMARKS
DOWNTOWN L.A.  SUNNY     67  40  37 VRB3      30.01F
L.A. AIRPORT   MOSUNNY   64  45  49 SE5       30.02F
SAN DIEGO      SUNNY     65  45  48 CALM      30.04S
BURBANK        SUNNY     65  32  29 CALM      30.02S
ONTARIO        SUNNY     65  30  27 CALM      30.03S
RIVERSIDE      SUNNY     66  27  23 CALM      30.03S
PALM SPRINGS   SUNNY     77  24  14 CALM      29.95F
EL CENTRO NAS  SUNNY     75  31  19 CALM      29.94S
IMPERIAL       SUNNY     74  34  23 CALM      29.93S
BLYTHE         SUNNY     71  24  17 CALM      29.95S
$$

NVZ020-UTZ003-181700-
SOUTHERN NEVADA-UTAH

CITY           SKY/WX    TMP DP  RH WIND       PRES   REMARKS
LAS VEGAS      NOT AVBL
SALT LAKE CITY SUNNY     54  36  50 E3        30.04S
$$

NMZ009-TXZ055-181700-
NEW MEXICO-WEST TEXAS

CITY           SKY/WX    TMP DP  RH WIND       PRES   REMARKS
ALBUQUERQUE    PTSUNNY   48  30  49 NW8       30.03R
EL PASO        MOSUNNY   64  11  12 W14       30.03S
$$


........................KEY........................
SKY/WX - SKY CONDITION/WEATHER
TMP    - TEMPERATURE IN FAHRENHEIT
DP     - DEW POINT IN FAHRENHEIT
RH     - RELATIVE HUMIDITY IN PERCENT
WIND   - DIRECTION AND SPEED IN MILES PER HOUR (MPH)
VRB    - VARIABLE WIND DIRECTION
PRES   - MEAN SEA LEVEL PRESSURE IN INCHES OF MERCURY
         F - FALLING PRESSURE   R - RISING PRESSURE
         S - STEADY PRESSURE
VSB    - VISIBILITY IN MILES
HX     - HEAT INDEX IN FAHRENHEIT
WCI    - WIND CHILL INDEX IN FAHRENHEIT
TC     - TEMPERATURE IN CELSIUS WHICH IS ALSO KNOWN AS
         TEMPERATURE IN CENTIGRADE
AFB    - AIR FORCE BASE
         LUKE AFB IS LUKE AIR FORCE BASE
         DAVIS-MONTHAN IS DAVIS-MONTHAN AIR FORCE BASE
NAS    - NAVAL AIR STATION
         EL CENTRO NAS IS EL CENTRO NAVAL AIR STATION
N/A    - NOT AVAILABLE



USA.gov is the U.S. government's official web portal to all federal, state and local government web resources and services.